[[{"header":{"parameterUnit":"m.s-1","parameterCategory":1,"la1":30.2991,"la2":30.254,"lo1":-89.0895,"lo2":-89.0444,"dy":0.0017,"dx":0.0017,"nx":28,"ny":28,"refTime":"2023-08-13T21:00:00:Z","depth":0,"parameterNumber":2,"parameterNumberName":"U-component_of_WINDS"},"data":[0,0,0,0,0,0,0,0,0,0,0,0,0,0,0,0,0,0,0,0,0,0,0,0,0,0,0,0,0,0,0,0,0,0,0,0,0,0,0,0,0,0,0,0,0,0,0,0,0,0,0,0,0,0,0,0,0,0,5.3878,5.388,0,5.3978,5.3979,5.398,5.3904,5.3901,5.3897,5.3894,5.3996,5.4001,5.4007,0,0,0,0,0,0,0,0,0,0,0,0,0,5.362,5.3625,5.3878,5.388,5.3881,5.3978,5.3979,5.3981,5.3905,5.3901,5.3897,5.3893,5.3994,5.4001,5.4008,0,0,0,0,0,0,0,0,0,0,0,0,0,5.3727,5.3626,5.3878,5.3855,5.3854,5.3978,5.3979,5.3981,5.3905,5.3901,5.3896,5.3891,5.3992,5.4,5.4009,5.4161,0,0,5.4035,5.4039,0,0,0,0,0,0,0,0,5.3721,5.3736,5.3857,5.3857,5.3855,5.3924,5.3925,5.4041,5.3907,5.3886,5.3894,5.3889,5.3976,5.3985,5.4015,5.4166,5.417,5.4036,5.4041,5.4045,5.4047,0,0,0,0,0,0,0,5.3714,5.3732,5.3918,5.3859,5.3858,5.3838,5.3848,5.3947,5.3957,5.3887,5.3882,5.3895,5.3974,5.4007,5.4017,5.4171,5.4036,5.4043,5.4049,5.4052,5.4448,5.4453,0,0,0,0,0,0,5.3709,5.3726,5.3915,5.3921,5.3775,5.3847,5.3858,5.3907,5.3956,5.3959,5.3899,5.3891,5.3994,5.4007,5.402,5.4198,5.4045,5.4053,5.4058,5.4442,5.4449,5.4455,0,0,0,0,0,0,5.3703,5.3726,5.391,5.3822,5.3844,5.3857,5.3912,5.3911,5.3943,5.3965,5.3966,5.393,5.3991,5.4008,5.4125,5.4201,5.4057,5.4065,5.4436,5.4444,5.4452,5.4558,0,0,0,0,0,0,5.3696,5.3725,5.3784,5.3824,5.3849,5.4016,5.3917,5.3917,5.3959,5.3949,5.3994,5.3997,5.3988,5.4113,5.4134,5.421,5.4071,5.4429,5.444,5.4449,5.4548,5.4568,5.4586,0,0,0,0,0,5.3687,5.381,5.3787,5.381,5.3923,5.402,5.4034,5.4022,5.3965,5.4023,5.4036,5.3996,5.419,5.4126,5.4149,5.4228,5.4425,5.4437,5.4449,5.4539,5.4564,5.4586,0,0,0,0,0,0,5.3779,5.3815,5.379,5.393,5.3972,5.4007,5.408,5.405,5.4109,5.4098,5.408,5.409,5.4213,5.4233,5.4161,5.4376,5.4298,5.4315,5.4359,5.4383,5.4402,5.4393,5.4079,0,0,0,0,0,5.3815,5.3892,5.3919,5.404,5.4062,5.4068,5.411,5.4096,5.414,5.4157,5.4179,5.4223,5.4292,5.4339,5.4406,5.4551,5.4558,5.4617,5.4636,5.4652,5.4666,5.474,5.4766,5.4494,5.4494,5.4494,0,0,5.3891,5.3921,5.397,5.4059,5.409,5.4168,5.4084,5.4171,5.4228,5.4171,5.4282,5.43,5.4347,5.4478,5.4537,5.4498,5.4743,5.4667,5.468,5.4685,5.4755,5.4781,5.4804,5.4502,5.4501,5.4499,0,0,5.4069,5.41,5.4202,5.4235,5.4283,5.4286,5.431,5.435,5.4359,5.4471,5.4428,5.4496,5.4618,5.4652,5.4685,5.4874,5.4837,5.4896,5.4996,5.5069,5.509,5.5109,5.5172,5.5196,5.491,5.4911,5.4911,0,5.4157,5.4273,5.4259,5.4348,5.4387,5.4338,5.444,5.4473,5.454,5.4568,5.4524,5.4674,5.4702,5.4839,5.4884,5.4914,5.4939,5.4889,5.5088,5.5107,5.5124,5.5185,5.5209,5.4917,5.4917,5.4916,5.4915,0,5.4377,5.4459,5.4535,5.4601,5.4649,5.4744,5.4742,5.4792,5.4774,5.4781,5.4894,5.4926,5.4996,5.5028,5.5012,5.5162,5.5135,5.5091,5.5011,5.5157,5.5213,5.5237,5.4927,5.4924,5.4922,5.4921,0,0,5.4615,5.467,5.4698,5.4725,5.4774,5.4836,5.4929,5.4997,5.5038,5.5087,5.5161,5.5265,5.5223,5.526,5.5248,5.5312,5.5455,5.5259,5.5259,5.5291,5.5617,5.5648,5.5676,5.5432,5.5436,5.544,5.5612,0,5.4792,5.4952,5.4941,5.5091,5.5164,5.5118,5.5198,5.5236,5.5245,5.5307,5.5316,5.5388,5.5329,5.5351,5.5413,5.5424,5.5519,5.5412,5.5499,5.5502,5.5485,5.5706,5.574,5.5901,5.5634,5.5638,5.5641,0,5.502,5.5075,5.5232,5.5267,5.5297,5.537,5.5429,5.549,5.5531,5.5533,5.5574,5.555,5.5641,5.5561,5.5684,5.5611,5.5646,5.5657,5.5663,5.5668,5.5578,5.5714,5.5952,5.5975,5.5676,5.5673,5.5671,0,5.5173,5.5286,5.5394,5.542,5.5464,5.5515,5.5536,5.5573,5.5613,5.5666,5.5691,5.5754,5.5788,5.5836,5.5829,5.5772,5.5953,5.5873,5.5954,5.5955,5.5993,5.599,5.6237,5.6021,5.6021,5.602,5.602,0,5.537,5.5468,5.5463,5.5529,5.5636,5.5621,5.5727,5.5742,5.5774,5.5841,5.5806,5.587,5.5857,5.592,5.5915,5.6016,5.6033,5.6035,5.6031,5.6036,5.6035,5.6056,5.6044,5.6027,5.6025,5.6024,5.6023,0,5.5558,5.556,5.5673,5.5706,5.5716,5.5793,5.582,5.5881,5.5887,5.5971,5.599,5.5998,5.607,5.6068,5.6151,5.6147,5.6269,5.6255,5.6255,5.6251,5.6331,5.6322,5.6598,5.6632,5.6397,5.6399,5.6401,0,5.5683,5.5756,5.5796,5.5838,5.5861,5.593,5.5971,5.5959,5.6003,5.6054,5.6108,5.6177,5.6231,5.6347,5.636,5.6421,5.6406,5.6499,5.6415,5.6416,5.6403,5.6398,5.6403,5.6514,5.6517,5.6519,5.6521,0,5.5902,5.5898,5.5958,5.6018,5.6068,5.6115,5.6158,5.6194,5.6186,5.6237,5.6309,5.6351,5.6434,5.6501,5.656,5.658,5.6548,5.6547,5.6568,5.6572,5.6567,5.6567,5.6296,5.654,5.6538,5.6537,5.6536,5.6535,5.6059,5.6121,5.6157,5.6225,5.6256,5.6296,5.6354,5.6366,5.6426,5.6492,5.6482,5.6562,5.6598,5.6674,5.67,5.6761,5.6728,5.676,5.6768,5.6775,5.6782,5.656,5.6772,5.6772,5.6771,5.6771,5.677,0,5.6273,5.6294,5.6356,5.6416,5.6469,5.6435,5.648,5.6526,5.6597,5.6634,5.6687,5.6769,5.6834,5.6851,5.6913,5.6958,5.6945,5.6975,5.6969,5.6974,5.681,5.6783,5.6984,5.6984,5.6984,5.6984,5.6984,5.6984,5.639,5.6492,5.6492,5.6608,5.6628,5.6706,5.6734,5.677,5.6799,5.6892,5.6945,5.6956,5.6984,5.7047,5.7104,5.7107,5.713,5.7164,5.7162,5.7007,5.6986,5.6965,5.694,5.717,5.7171,5.732,5.7321,5.7322]},{"header":{"parameterUnit":"m.s-1","parameterCategory":1,"la1":30.2991,"la2":30.254,"lo1":-89.0895,"lo2":-89.0444,"dy":0.0017,"dx":0.0017,"nx":28,"ny":28,"refTime":"2023-08-13T21:00:00:Z","depth":0,"parameterNumber":3,"parameterNumberName":"V-component_of_WINDS"},"data":[0,0,0,0,0,0,0,0,0,0,0,0,0,0,0,0,0,0,0,0,0,0,0,0,0,0,0,0,0,0,0,0,0,0,0,0,0,0,0,0,0,0,0,0,0,0,0,0,0,0,0,0,0,0,0,0,0,0,3.5853,3.5854,0,3.5955,3.5956,3.5957,3.5946,3.5944,3.5943,3.5941,3.6042,3.6047,3.6051,0,0,0,0,0,0,0,0,0,0,0,0,0,3.5645,3.5649,3.5853,3.5854,3.5855,3.5954,3.5956,3.5957,3.5946,3.5944,3.5942,3.5941,3.6041,3.6046,3.6051,0,0,0,0,0,0,0,0,0,0,0,0,0,3.5739,3.565,3.5852,3.5862,3.5864,3.5954,3.5956,3.5957,3.5947,3.5944,3.5942,3.594,3.6039,3.6046,3.6052,3.6138,0,0,3.6071,3.6074,0,0,0,0,0,0,0,0,3.5734,3.5747,3.5859,3.5861,3.5864,3.5935,3.5919,3.6018,3.5947,3.5915,3.5941,3.5939,3.6009,3.6017,3.6041,3.6143,3.6147,3.6071,3.6075,3.6078,3.608,0,0,0,0,0,0,0,3.5728,3.5743,3.5893,3.5861,3.5864,3.586,3.587,3.5938,3.5974,3.5918,3.5917,3.593,3.6009,3.6035,3.6044,3.6149,3.6071,3.6077,3.6081,3.6083,3.6325,3.6327,0,0,0,0,0,0,3.5719,3.5737,3.589,3.5896,3.5792,3.5865,3.5877,3.5915,3.5973,3.598,3.5932,3.5929,3.6026,3.6036,3.6047,3.6151,3.6078,3.6084,3.6087,3.6322,3.6325,3.6328,0,0,0,0,0,0,3.5715,3.5733,3.5885,3.5817,3.5836,3.5871,3.5913,3.5918,3.5944,3.5984,3.599,3.5952,3.6024,3.6038,3.6116,3.6155,3.6087,3.6092,3.6319,3.6323,3.6327,3.6361,0,0,0,0,0,0,3.5709,3.5731,3.5766,3.5817,3.5839,3.5954,3.5916,3.5922,3.5955,3.5953,3.6004,3.6011,3.6024,3.6106,3.6122,3.6162,3.6097,3.6315,3.6321,3.6325,3.6356,3.6366,3.6373,0,0,0,0,0,3.5702,3.5771,3.5768,3.5786,3.5883,3.5956,3.5968,3.5983,3.5959,3.5993,3.6018,3.6009,3.6148,3.6114,3.6132,3.6174,3.6313,3.6319,3.6325,3.6353,3.6364,3.6373,0,0,0,0,0,0,3.5722,3.5778,3.5775,3.5863,3.5905,3.5954,3.5997,3.5994,3.6043,3.6038,3.6053,3.6065,3.6142,3.6166,3.6128,3.626,3.6227,3.6237,3.6242,3.6253,3.6261,3.6254,3.6102,0,0,0,0,0,3.5737,3.5793,3.5838,3.5912,3.5933,3.5962,3.5994,3.6001,3.6044,3.6062,3.6093,3.6134,3.6187,3.6221,3.6272,3.636,3.637,3.6398,3.6406,3.6413,3.6421,3.6467,3.648,3.6348,3.6348,3.6347,0,0,3.5769,3.5806,3.584,3.5917,3.595,3.6006,3.5976,3.6037,3.6078,3.6071,3.6145,3.6169,3.6216,3.6299,3.6336,3.6321,3.646,3.642,3.6426,3.643,3.6475,3.6487,3.6498,3.6352,3.6351,3.635,0,0,3.5854,3.5889,3.5953,3.5987,3.6038,3.6056,3.6072,3.6121,3.6137,3.6212,3.6208,3.6256,3.6347,3.638,3.6409,3.6506,3.6499,3.6522,3.6566,3.6611,3.6621,3.6631,3.6664,3.6676,3.653,3.653,3.653,0,3.5887,3.5972,3.5987,3.6048,3.6081,3.6077,3.6142,3.6174,3.6238,3.626,3.6242,3.6355,3.6387,3.6476,3.65,3.6524,3.654,3.6516,3.6619,3.6628,3.6637,3.6669,3.6682,3.6532,3.6532,3.6532,3.6531,0,3.6008,3.6067,3.6113,3.6176,3.6214,3.6277,3.6299,3.6336,3.634,3.636,3.6435,3.6473,3.6531,3.6553,3.6557,3.6642,3.6631,3.6616,3.6582,3.6652,3.6682,3.6694,3.6535,3.6535,3.6534,3.6533,0,0,3.611,3.618,3.6197,3.6225,3.628,3.6325,3.6386,3.6443,3.6474,3.6518,3.6569,3.6645,3.6631,3.6664,3.6672,3.6712,3.6784,3.6691,3.6693,3.6706,3.6879,3.689,3.6904,3.678,3.6782,3.6784,3.6875,0,3.6201,3.6311,3.6325,3.6422,3.6476,3.6472,3.6526,3.6564,3.6584,3.6631,3.6653,3.6706,3.6684,3.6704,3.6743,3.6767,3.6819,3.6761,3.6826,3.6828,3.6814,3.692,3.6931,3.7015,3.6887,3.6889,3.689,0,3.6321,3.6369,3.6471,3.6518,3.6541,3.6589,3.6642,3.6687,3.673,3.6742,3.6778,3.678,3.6842,3.6806,3.6891,3.6851,3.6878,3.6894,3.6897,3.6903,3.6863,3.6928,3.7042,3.7054,3.6909,3.6908,3.6906,0,3.6384,3.6474,3.6546,3.657,3.6627,3.666,3.6685,3.6726,3.6759,3.6805,3.6826,3.6878,3.6906,3.6946,3.6962,3.6935,3.7045,3.7011,3.7055,3.7054,3.7078,3.7076,3.7197,3.7097,3.7096,3.7096,3.7096,0,3.6483,3.6545,3.6575,3.662,3.6689,3.6704,3.6772,3.6795,3.6832,3.6879,3.688,3.6924,3.6943,3.699,3.7002,3.7069,3.7082,3.7092,3.7094,3.7092,3.709,3.711,3.7104,3.71,3.7099,3.7098,3.7098,0,3.6564,3.6587,3.6666,3.6713,3.6726,3.6775,3.6814,3.6857,3.6876,3.6936,3.6951,3.6981,3.7036,3.7056,3.7123,3.7131,3.7209,3.7206,3.7194,3.7195,3.7237,3.7233,3.7374,3.7393,3.7281,3.7282,3.7283,0,3.6626,3.6674,3.6726,3.6758,3.6785,3.6837,3.6871,3.6887,3.6922,3.6974,3.7009,3.7065,3.711,3.7198,3.7224,3.7275,3.7274,3.732,3.7281,3.7277,3.7273,3.727,3.7274,3.7327,3.7328,3.7329,3.733,0,3.6732,3.674,3.679,3.6843,3.6883,3.6926,3.6966,3.6993,3.7015,3.7054,3.7111,3.7146,3.7214,3.7268,3.732,3.7344,3.734,3.7342,3.7355,3.7352,3.7343,3.7347,3.7213,3.7338,3.7338,3.7337,3.7336,3.7336,3.6805,3.6847,3.689,3.6944,3.6977,3.7015,3.7056,3.7081,3.7129,3.7186,3.7193,3.7254,3.7294,3.7363,3.7389,3.7436,3.7423,3.7442,3.7447,3.7451,3.7453,3.7336,3.7446,3.7446,3.7445,3.7445,3.7445,0,3.691,3.6937,3.6987,3.7044,3.7087,3.7081,3.7125,3.716,3.7214,3.7253,3.7297,3.7362,3.7414,3.7444,3.7496,3.7528,3.7527,3.7541,3.7538,3.7544,3.7463,3.7446,3.754,3.754,3.754,3.754,3.754,3.754,3.6969,3.704,3.7053,3.7139,3.7166,3.7226,3.7252,3.7286,3.7317,3.7389,3.7433,3.7453,3.7488,3.7542,3.7589,3.7597,3.7615,3.763,3.7636,3.7559,3.755,3.754,3.7525,3.7634,3.7634,3.7713,3.7714,3.7714]}]]